Dewpoint
42 39 38 37 38 37 34 33 32 32 33 33 31 30 30 30 30 34 35 36 37 36 31 53 58 59 58 59 59 58 55 54 53 52 50 49 48 48 48 48 47 46 46 47
34 37 40 39 39 37 35 34 33 33 33 32 32 30 31 29 34 35 36 37 38 39 40 42 55 55 56 57 58 57 55 55 55 54 52 47 47 46 46 46 45 45 44 45
34 33 36 38 36 34 33 32 32 31 31 32 30 30 29 32 35 36 36 37 39 40 43 44 52 53 54 55 56 55 55 55 55 54 50 46 45 44 44 43 44 44 44 44
33 33 32 33 32 33 31 33 33 32 30 28 30 27 28 30 34 34 35 36 38 45 47 48 50 51 53 53 55 55 55 55 54 53 51 47 44 42 43 43 43 43 44 44
33 34 34 33 33 34 32 34 32 30 29 28 28 27 28 32 33 32 35 36 41 46 47 48 50 51 52 53 54 54 55 55 55 53 51 47 43 42 43 43 42 43 43 44
33 37 35 33 34 32 32 28 29 29 28 25 27 28 26 28 32 34 36 37 40 45 46 48 50 52 52 54 54 55 55 55 53 50 48 46 44 42 42 42 42 42 43 43
37 37 38 35 34 32 27 28 25 23 23 23 28 27 28 33 33 35 35 36 38 44 46 47 48 49 50 51 53 53 53 52 50 48 47 46 44 42 42 42 42 42 42 42
34 31 35 36 35 33 26 27 26 22 23 24 30 26 30 33 31 30 33 34 36 40 44 45 46 47 49 50 51 50 50 50 49 48 47 46 44 43 42 42 42 42 42 42
33 33 32 32 35 34 30 26 28 28 29 23 27 31 34 37 34 30 28 32 33 37 40 42 45 46 46 47 48 48 49 49 49 49 47 46 44 43 42 42 42 42 42 42
31 25 28 26 31 32 30 30 26 29 23 23 26 28 29 34 32 29 27 29 33 35 37 40 41 42 44 46 47 47 47 46 48 49 48 46 45 43 43 42 42 42 42 43
31 28 26 28 27 26 31 30 32 32 29 24 23 26 31 32 31 28 25 26 32 33 34 35 38 41 43 46 47 47 46 46 45 46 46 46 46 46 43 42 42 42 43 43
35 31 27 25 28 27 28 31 32 28 28 27 25 26 31 27 26 31 33 29 19 31 32 33 36 40 43 44 45 46 46 45 45 44 45 45 45 44 42 41 42 42 42 42
32 30 25 24 26 27 26 27 32 33 32 29 27 28 28 26 27 28 29 21 19 19 19 31 35 39 42 44 44 44 44 44 43 43 43 43 42 41 41 40 41 42 41 41
35 29 27 25 24 26 21 20 25 29 25 28 29 28 29 29 27 29 30 28 23 21 19 23 36 38 40 42 43 43 42 42 43 41 40 39 39 39 39 38 40 41 40 38
29 26 27 27 26 24 23 21 20 22 26 25 26 25 23 31 27 24 23 28 24 21 20 23 36 38 39 39 39 40 40 41 41 41 40 39 38 38 36 36 37 37 37 36
30 27 26 25 26 24 20 23 22 21 23 25 25 21 22 21 21 22 23 23 22 22 23 31 38 38 39 39 39 39 39 39 39 39 39 39 38 36 35 34 33 33 32 34
29 28 25 23 25 23 22 21 21 22 23 22 20 20 21 21 30 31 34 34 32 30 36 38 39 41 41 39 38 38 38 38 37 37 37 37 35 33 33 34 33 33 33 34
31 28 29 26 26 18 22 21 23 22 22 23 20 18 25 30 36 37 37 36 37 37 38 38 39 39 39 39 39 38 37 36 34 34 33 32 33 34 35 34 33 32 33 32
32 30 25 22 22 21 17 18 14 12 10 17 16 29 30 33 37 36 37 37 37 38 39 39 39 39 40 40 38 37 34 33 32 32 32 31 33 33 33 32 32 32 31 30
25 28 26 21 18 13 19 14 16 14 12 30 29 29 31 30 26 30 39 38 37 37 38 38 38 36 36 35 36 35 33 33 33 33 33 33 33 33 32 32 32 32 29 27
22 25 23 20 16 17 19 17 19 10 10 30 29 30 31 28 31 33 37 37 34 35 35 37 36 35 35 34 34 33 33 33 33 33 33 33 33 32 32 32 30 27 28 28
20 18 19 19 12 8 20 19 13 19 24 30 30 30 30 31 34 36 36 33 32 33 34 36 35 34 34 34 34 34 32 33 32 32 32 32 32 31 31 29 27 27 26 25
18 20 19 16 17 21 21 19 23 25 24 30 30 29 31 33 34 34 32 32 34 35 35 35 35 34 33 33 33 34 33 33 32 32 31 31 31 31 30 27 25 24 24 25
19 21 20 18 18 17 20 23 23 25 26 31 29 29 29 27 26 31 34 34 35 37 34 34 34 32 31 32 33 34 34 33 31 30 30 30 29 28 25 28 26 25 23 24
19 19 19 20 20 20 19 21 21 23 26 24 21 20 22 25 31 34 34 35 35 37 33 35 33 32 30 30 30 32 33 32 30 29 29 29 28 26 26 26 27 26 26 25
20 19 19 17 21 20 20 24 24 22 20 20 19 19 20 26 33 36 35 35 36 35 33 33 32 30 29 29 30 32 32 31 29 28 28 27 26 27 27 27 27 30 29 29
Lifted_Index
4 4 4 4 5 5 5 4 4 4 4 5 4 4 4 4 4 4 4 4 4 4 4 2 -0 -2 -3 -4 -5 -5 -5 -5 -4 -3 -2 -1 -0 1 2 5 6 7 7 7
4 4 4 4 5 5 4 4 4 4 4 4 4 4 4 4 4 4 4 4 4 4 3 2 -0 -2 -3 -4 -5 -5 -5 -4 -3 -2 -1 -0 1 2 3 5 6 7 7 7
4 4 4 4 4 4 4 4 4 4 4 4 4 4 3 3 4 4 4 4 3 3 3 2 0 -2 -3 -4 -4 -4 -4 -3 -2 -1 0 1 2 2 3 4 5 7 7 8
4 4 4 4 4 4 4 4 4 4 4 4 4 3 3 3 3 3 3 3 3 3 2 2 1 -1 -2 -3 -4 -3 -3 -2 -1 -0 1 1 2 3 3 4 5 6 7 7
4 4 4 4 4 4 4 4 4 4 4 4 3 3 3 4 3 3 3 3 3 3 2 2 1 -0 -1 -2 -2 -2 -2 -1 -0 1 1 2 3 3 4 4 4 5 6 6
4 4 4 4 4 4 4 3 3 3 3 3 3 3 3 4 3 3 3 3 4 3 2 2 1 0 -0 -1 -1 -1 -0 0 1 1 2 3 3 4 4 4 4 5 5 5
3 3 3 3 3 3 3 3 2 2 2 2 3 3 3 4 4 4 4 4 4 4 4 3 2 1 0 -0 -0 0 1 1 2 2 3 3 4 4 4 4 4 5 5 5
3 3 3 3 3 2 2 2 2 1 1 2 3 3 3 4 4 5 5 5 5 5 5 4 3 2 1 1 1 1 1 2 2 2 3 3 3 3 4 4 4 4 5 5
2 2 3 3 2 2 2 2 1 1 1 2 2 3 3 4 4 4 5 5 5 5 5 4 3 2 1 1 1 1 2 2 2 2 2 2 3 3 3 3 4 4 4 4
2 2 2 2 2 2 2 1 1 1 1 1 2 2 3 2 3 3 4 5 5 5 5 5 4 3 2 2 1 1 2 2 2 2 2 2 2 2 2 3 3 4 4 4
2 2 2 2 2 2 1 1 1 1 1 1 1 2 2 2 2 2 3 4 5 5 5 5 4 3 2 2 1 1 1 1 2 2 2 2 2 2 2 3 3 3 4 4
1 2 2 2 2 2 1 1 1 0 1 1 1 1 1 1 1 2 3 4 4 5 5 5 4 3 3 2 1 1 1 1 2 2 2 2 2 2 3 3 3 4 4 4
1 1 1 2 2 2 1 1 0 -0 -0 -0 0 0 1 1 1 1 2 3 4 4 5 5 4 3 2 2 2 2 2 2 2 2 3 3 3 3 3 3 4 4 4 5
1 1 1 1 1 1 1 1 1 0 -0 -0 -0 0 0 1 1 2 3 4 4 4 4 4 4 3 2 2 2 3 3 3 3 3 3 3 4 4 3 3 4 4 4 4
1 1 1 1 1 1 1 1 1 1 1 0 0 0 0 1 2 3 4 4 4 4 4 4 3 2 2 2 2 3 4 4 3 3 3 3 4 3 3 3 4 4 4 4
1 1 1 1 1 1 1 1 2 1 1 1 0 1 1 3 4 4 4 4 4 4 4 3 2 1 1 1 2 3 4 4 4 4 4 4 3 3 3 3 4 4 4 4
1 1 1 0 0 0 1 2 2 1 1 1 1 2 3 4 4 4 4 3 3 3 3 2 1 1 1 2 2 3 3 3 3 4 4 3 3 3 3 4 4 5 5 4
1 1 0 0 -0 0 1 2 2 1 1 2 3 3 4 4 4 4 3 3 3 2 2 1 1 1 1 2 2 3 3 3 3 4 4 4 4 4 4 4 5 6 6 6
1 1 1 0 -0 0 2 3 3 2 2 3 4 4 4 4 3 3 3 3 2 2 2 2 1 2 2 2 3 4 4 4 4 4 4 4 4 4 4 5 6 6 6 7
2 2 1 1 1 1 2 4 4 3 3 4 4 4 4 3 3 3 3 2 2 2 2 2 2 3 3 3 4 4 4 4 5 5 5 5 4 4 5 6 7 7 8 8
2 2 1 1 1 2 3 5 5 4 4 4 4 4 4 4 3 3 2 2 2 2 3 3 3 3 4 4 4 4 5 5 5 5 5 5 4 5 6 7 8 8 9 9
2 2 2 2 2 2 4 5 5 4 4 4 4 4 4 4 4 3 3 2 2 2 2 3 3 3 3 4 4 5 5 5 5 5 5 5 5 6 7 8 9 9 10 10
3 3 3 3 3 3 4 5 5 5 4 4 4 4 4 4 4 4 3 3 2 2 2 2 1 1 2 3 4 5 5 5 5 5 5 5 6 7 8 9 9 9 10 10
4 4 4 4 4 4 5 5 4 4 4 3 3 4 4 4 5 4 4 3 2 2 2 1 1 1 2 3 4 4 5 5 5 5 5 6 6 7 8 9 9 9 10 10
6 5 5 5 5 5 5 5 4 4 4 4 4 4 5 5 5 4 4 3 3 3 2 2 1 1 2 3 4 4 4 5 5 5 6 6 6 7 8 9 9 10 10 11
6 6 6 5 5 5 5 5 4 4 4 5 5 5 6 6 5 4 3 3 3 3 2 2 1 2 3 4 4 4 4 5 5 5 6 6 7 8 9 9 10 10 11 12